Location: Banksville Park
(38.5557°N, 75.1182°W)
Time: 06:28:03
(UTC+00:00)

CENTAUR R/B - Pass Details

Date: 26 January 2021
Orbit: 742 x 1446 km, 63.5° (Epoch: 01 March)

Event Time Altitude Azimuth Distance (km) Brightness Sun altitude
Rises 11:25:48 0° 236° (SW) 3,358 4.9 -9.1°
Reaches altitude 10° 11:28:14 10° 243° (WSW) 2,502 4.2 -8.6°
Maximum altitude 11:33:41 41° 313° (NW) 1,371 2.9 -7.6°
Drops below altitude 10° 11:40:08 10° 23° (NNE) 2,953 5.1 -6.4°
Sets 11:43:15 0° 30° (NNE) 4,034 5.9 -5.8°
